Time,TemperatureF,DewpointF,PressureIn,WindDirection,WindDirectionDegrees,WindSpeedMPH,WindSpeedGustMPH,Humidity,HourlyPrecipIn,Conditions,Clouds,dailyrainin,SolarRadiationWatts/m^2,SoftwareType,DateUTC
2013-05-13 00:03:00,50.0,27.0,-100.00,NW,304,3.0,10.0,41,0.00,,,0.06,0.000000,,2013-05-13 04:03:00,
2013-05-13 00:12:00,50.0,27.0,-100.00,NW,304,3.0,10.0,41,0.00,,,0.06,0.000000,,2013-05-13 04:12:00,
2013-05-13 00:23:00,50.0,27.0,-100.00,NW,304,3.0,10.0,41,0.00,,,0.06,0.000000,,2013-05-13 04:23:00,
2013-05-13 00:53:00,47.0,27.0,-100.00,West,280,2.0,10.0,45,0.00,,,0.06,0.000000,,2013-05-13 04:53:00,
2013-05-13 01:02:00,47.0,27.0,-100.00,West,280,2.0,10.0,45,0.00,,,0.06,0.000000,,2013-05-13 05:02:00,
2013-05-13 01:12:00,47.0,27.0,-100.00,West,280,2.0,10.0,45,0.00,,,0.06,0.000000,,2013-05-13 05:12:00,
2013-05-13 01:22:00,47.0,27.0,-100.00,West,280,2.0,10.0,45,0.00,,,0.06,0.000000,,2013-05-13 05:22:00,
2013-05-13 01:52:00,44.0,29.0,-100.00,West,269,1.0,7.0,56,0.00,,,0.06,0.000000,,2013-05-13 05:52:00,
2013-05-13 02:01:00,44.0,29.0,-100.00,West,269,1.0,7.0,56,0.00,,,0.06,0.000000,,2013-05-13 06:01:00,
2013-05-13 02:12:00,44.0,29.0,-100.00,West,269,1.0,7.0,56,0.00,,,0.06,0.000000,,2013-05-13 06:12:00,
2013-05-13 02:21:00,44.0,29.0,-100.00,West,269,1.0,7.0,56,0.00,,,0.06,0.000000,,2013-05-13 06:21:00,
2013-05-13 02:52:00,44.0,28.0,-100.00,West,273,3.0,8.0,54,0.00,,,-99.99,0.000000,,2013-05-13 06:52:00,
2013-05-13 03:01:00,44.0,28.0,-100.00,West,273,3.0,8.0,54,0.00,,,-99.99,0.000000,,2013-05-13 07:01:00,
2013-05-13 03:11:00,44.0,28.0,-100.00,West,273,3.0,8.0,54,0.00,,,-99.99,0.000000,,2013-05-13 07:11:00,
2013-05-13 03:22:00,44.0,28.0,-100.00,West,273,3.0,8.0,54,0.00,,,-99.99,0.000000,,2013-05-13 07:22:00,
2013-05-13 03:52:00,44.0,28.0,-100.00,West,267,6.0,15.0,52,0.00,,,0.06,0.000000,,2013-05-13 07:52:00,
2013-05-13 04:02:00,44.0,28.0,-100.00,West,267,6.0,15.0,52,0.00,,,0.06,0.000000,,2013-05-13 08:02:00,
2013-05-13 04:11:00,44.0,28.0,-100.00,West,267,6.0,15.0,52,0.00,,,0.06,0.000000,,2013-05-13 08:11:00,
2013-05-13 04:21:00,44.0,28.0,-100.00,West,267,6.0,15.0,52,0.00,,,0.06,0.000000,,2013-05-13 08:21:00,
2013-05-13 04:52:00,42.0,27.0,-100.00,SSW,204,2.0,15.0,56,0.00,,,0.06,0.000000,,2013-05-13 08:52:00,
2013-05-13 05:01:00,42.0,27.0,-100.00,SSW,204,2.0,15.0,56,0.00,,,0.06,0.000000,,2013-05-13 09:01:00,
2013-05-13 05:11:00,42.0,27.0,-100.00,SSW,204,2.0,15.0,56,0.00,,,0.06,0.000000,,2013-05-13 09:11:00,
2013-05-13 05:21:00,42.0,27.0,-100.00,SSW,204,2.0,15.0,56,0.00,,,0.06,0.000000,,2013-05-13 09:21:00,
2013-05-13 05:52:00,42.0,29.0,-100.00,SW,236,3.0,8.0,59,0.00,,,0.06,1.000000,,2013-05-13 09:52:00,
2013-05-13 06:03:00,42.0,29.0,-100.00,SW,236,3.0,8.0,59,0.00,,,0.06,1.000000,,2013-05-13 10:03:00,
2013-05-13 06:12:00,42.0,29.0,-100.00,SW,236,3.0,8.0,59,0.00,,,0.06,1.000000,,2013-05-13 10:12:00,
2013-05-13 06:22:00,42.0,29.0,-100.00,SW,236,3.0,8.0,59,0.00,,,0.06,1.000000,,2013-05-13 10:22:00,
2013-05-13 06:53:00,44.0,28.0,-100.00,West,264,6.0,16.0,54,0.00,,,0.06,21.000000,,2013-05-13 10:53:00,
2013-05-13 07:03:00,44.0,28.0,-100.00,West,264,6.0,16.0,54,0.00,,,0.06,21.000000,,2013-05-13 11:03:00,
2013-05-13 07:12:00,44.0,28.0,-100.00,West,264,6.0,16.0,54,0.00,,,0.06,21.000000,,2013-05-13 11:12:00,
2013-05-13 07:22:00,44.0,28.0,-100.00,West,264,6.0,16.0,54,0.00,,,0.06,21.000000,,2013-05-13 11:22:00,
2013-05-13 07:52:00,48.0,28.0,-100.00,West,260,7.0,16.0,45,0.00,,,0.06,219.000000,,2013-05-13 11:52:00,
2013-05-13 08:02:00,48.0,28.0,-100.00,West,260,7.0,16.0,45,0.00,,,0.06,219.000000,,2013-05-13 12:02:00,
2013-05-13 08:12:00,48.0,28.0,-100.00,West,260,7.0,16.0,45,0.00,,,0.06,219.000000,,2013-05-13 12:12:00,
2013-05-13 08:21:00,48.0,28.0,-100.00,West,260,7.0,16.0,45,0.00,,,0.06,219.000000,,2013-05-13 12:21:00,
2013-05-13 08:52:00,50.0,27.0,-100.00,West,260,9.0,23.0,41,0.00,,,0.03,404.000000,,2013-05-13 12:52:00,
2013-05-13 09:01:00,50.0,27.0,-100.00,West,260,9.0,23.0,41,0.00,,,0.03,404.000000,,2013-05-13 13:01:00,
2013-05-13 09:11:00,50.0,27.0,-100.00,West,260,9.0,23.0,41,0.00,,,0.03,404.000000,,2013-05-13 13:11:00,
2013-05-13 09:21:00,50.0,27.0,-100.00,West,260,9.0,23.0,41,0.00,,,0.03,404.000000,,2013-05-13 13:21:00,
2013-05-13 09:52:00,52.0,28.0,-100.00,West,281,7.0,18.0,39,0.00,,,0.01,569.000000,,2013-05-13 13:52:00,
2013-05-13 10:02:00,52.0,28.0,-100.00,West,281,7.0,18.0,39,0.00,,,0.01,569.000000,,2013-05-13 14:02:00,
2013-05-13 10:11:00,52.0,28.0,-100.00,West,281,7.0,18.0,39,0.00,,,0.01,569.000000,,2013-05-13 14:11:00,
2013-05-13 10:22:00,52.0,28.0,-100.00,West,281,7.0,18.0,39,0.00,,,0.01,569.000000,,2013-05-13 14:22:00,
2013-05-13 10:52:00,53.0,27.0,-100.00,West,278,9.0,24.0,36,0.00,,,0.01,630.000000,,2013-05-13 14:52:00,
2013-05-13 11:01:00,53.0,27.0,-100.00,West,278,9.0,24.0,36,0.00,,,0.01,630.000000,,2013-05-13 15:01:00,
2013-05-13 11:11:00,53.0,27.0,-100.00,West,278,9.0,24.0,36,0.00,,,0.01,630.000000,,2013-05-13 15:11:00,
2013-05-13 11:21:00,53.0,27.0,-100.00,West,278,9.0,24.0,36,0.00,,,0.01,630.000000,,2013-05-13 15:21:00,
2013-05-13 11:53:00,55.0,29.0,-100.00,West,261,10.0,24.0,36,0.00,,,0.01,745.000000,,2013-05-13 15:53:00,
2013-05-13 12:03:00,55.0,29.0,-100.00,West,261,10.0,24.0,36,0.00,,,0.01,745.000000,,2013-05-13 16:03:00,
2013-05-13 12:12:00,55.0,29.0,-100.00,West,261,10.0,24.0,36,0.00,,,0.01,745.000000,,2013-05-13 16:12:00,
2013-05-13 12:21:00,55.0,29.0,-100.00,West,261,10.0,24.0,36,0.00,,,0.01,745.000000,,2013-05-13 16:21:00,
2013-05-13 12:53:00,56.0,27.0,-100.00,West,276,9.0,22.0,33,0.00,,,0.01,889.000000,,2013-05-13 16:53:00,
2013-05-13 13:02:00,56.0,27.0,-100.00,West,276,9.0,22.0,33,0.00,,,0.01,889.000000,,2013-05-13 17:02:00,
2013-05-13 13:12:00,56.0,27.0,-100.00,West,276,9.0,22.0,33,0.00,,,0.01,889.000000,,2013-05-13 17:12:00,
2013-05-13 13:21:00,56.0,27.0,-100.00,West,276,9.0,22.0,33,0.00,,,0.01,889.000000,,2013-05-13 17:21:00,
2013-05-13 13:54:00,58.0,28.0,-100.00,West,271,8.0,22.0,31,0.00,,,0.00,873.000000,,2013-05-13 17:54:00,
2013-05-13 14:04:00,58.0,28.0,-100.00,West,271,8.0,22.0,31,0.00,,,0.00,873.000000,,2013-05-13 18:04:00,
2013-05-13 14:13:00,58.0,28.0,-100.00,West,271,8.0,22.0,31,0.00,,,0.00,873.000000,,2013-05-13 18:13:00,
2013-05-13 14:23:00,58.0,28.0,-100.00,West,271,8.0,22.0,31,0.00,,,0.00,873.000000,,2013-05-13 18:23:00,
2013-05-13 14:52:00,58.0,26.0,-100.00,WSW,258,9.0,21.0,29,0.00,,,0.00,895.000000,,2013-05-13 18:52:00,
2013-05-13 15:01:00,58.0,26.0,-100.00,WSW,258,9.0,21.0,29,0.00,,,0.00,895.000000,,2013-05-13 19:01:00,
2013-05-13 15:12:00,58.0,26.0,-100.00,WSW,258,9.0,21.0,29,0.00,,,0.00,895.000000,,2013-05-13 19:12:00,
2013-05-13 15:22:00,58.0,26.0,-100.00,WSW,258,9.0,21.0,29,0.00,,,0.00,895.000000,,2013-05-13 19:22:00,
2013-05-13 15:53:00,58.0,26.0,-100.00,West,276,7.0,18.0,29,0.00,,,0.00,715.000000,,2013-05-13 19:53:00,
2013-05-13 16:02:00,58.0,26.0,-100.00,West,276,7.0,18.0,29,0.00,,,0.00,715.000000,,2013-05-13 20:02:00,
2013-05-13 16:11:00,58.0,26.0,-100.00,West,276,7.0,18.0,29,0.00,,,0.00,715.000000,,2013-05-13 20:11:00,
2013-05-13 16:23:00,58.0,26.0,-100.00,West,276,7.0,18.0,29,0.00,,,0.00,715.000000,,2013-05-13 20:23:00,
2013-05-13 16:53:00,60.0,27.0,-100.00,West,262,8.0,20.0,28,0.00,,,0.00,660.000000,,2013-05-13 20:53:00,
2013-05-13 17:03:00,60.0,27.0,-100.00,West,262,8.0,20.0,28,0.00,,,0.00,660.000000,,2013-05-13 21:03:00,
2013-05-13 17:14:00,60.0,27.0,-100.00,West,262,8.0,20.0,28,0.00,,,0.00,660.000000,,2013-05-13 21:14:00,
2013-05-13 17:23:00,60.0,27.0,-100.00,West,262,8.0,20.0,28,0.00,,,0.00,660.000000,,2013-05-13 21:23:00,
2013-05-13 17:53:00,59.0,27.0,-100.00,West,279,6.0,16.0,29,0.00,,,0.00,480.000000,,2013-05-13 21:53:00,
2013-05-13 18:03:00,59.0,27.0,-100.00,West,279,6.0,16.0,29,0.00,,,0.00,480.000000,,2013-05-13 22:03:00,
2013-05-13 18:12:00,59.0,27.0,-100.00,West,279,6.0,16.0,29,0.00,,,0.00,480.000000,,2013-05-13 22:12:00,
2013-05-13 18:23:00,59.0,27.0,-100.00,West,279,6.0,16.0,29,0.00,,,0.00,480.000000,,2013-05-13 22:23:00,
2013-05-13 18:52:00,57.0,27.0,-100.00,WNW,301,3.0,14.0,31,0.00,,,0.00,189.000000,,2013-05-13 22:52:00,
2013-05-13 19:02:00,57.0,27.0,-100.00,WNW,301,3.0,14.0,31,0.00,,,0.00,189.000000,,2013-05-13 23:02:00,
2013-05-13 19:13:00,57.0,27.0,-100.00,WNW,301,3.0,14.0,31,0.00,,,0.00,189.000000,,2013-05-13 23:13:00,
2013-05-13 19:23:00,57.0,27.0,-100.00,WNW,301,3.0,14.0,31,0.00,,,0.00,189.000000,,2013-05-13 23:23:00,
2013-05-13 19:54:00,52.0,26.0,-100.00,WNW,295,4.0,12.0,36,0.00,,,0.00,74.000000,,2013-05-13 23:54:00,
2013-05-13 20:02:00,52.0,26.0,-100.00,WNW,295,4.0,12.0,36,0.00,,,0.00,74.000000,,2013-05-14 00:02:00,
2013-05-13 20:13:00,52.0,26.0,-100.00,WNW,295,4.0,12.0,36,0.00,,,0.00,74.000000,,2013-05-14 00:13:00,
2013-05-13 20:22:00,52.0,26.0,-100.00,WNW,295,4.0,12.0,36,0.00,,,0.00,74.000000,,2013-05-14 00:22:00,
2013-05-13 20:52:00,48.0,30.0,-100.00,SSW,193,1.0,6.0,49,0.00,,,0.00,7.000000,,2013-05-14 00:52:00,
2013-05-13 21:02:00,48.0,30.0,-100.00,SSW,193,1.0,6.0,49,0.00,,,0.00,7.000000,,2013-05-14 01:02:00,
2013-05-13 21:11:00,48.0,30.0,-100.00,SSW,193,1.0,6.0,49,0.00,,,0.00,7.000000,,2013-05-14 01:11:00,
2013-05-13 21:21:00,48.0,30.0,-100.00,SSW,193,1.0,6.0,49,0.00,,,0.00,7.000000,,2013-05-14 01:21:00,
2013-05-13 21:53:00,48.0,32.0,-100.00,NW,321,2.0,5.0,54,0.00,,,0.00,0.000000,,2013-05-14 01:53:00,
2013-05-13 22:02:00,48.0,32.0,-100.00,NW,321,2.0,5.0,54,0.00,,,0.00,0.000000,,2013-05-14 02:02:00,
2013-05-13 22:12:00,48.0,32.0,-100.00,NW,321,2.0,5.0,54,0.00,,,0.00,0.000000,,2013-05-14 02:12:00,
2013-05-13 22:22:00,48.0,32.0,-100.00,NW,321,2.0,5.0,54,0.00,,,0.00,0.000000,,2013-05-14 02:22:00,
2013-05-13 22:52:00,45.0,31.0,-100.00,NW,314,3.0,8.0,58,0.00,,,0.00,0.000000,,2013-05-14 02:52:00,
2013-05-13 23:01:00,45.0,31.0,-100.00,NW,314,3.0,8.0,58,0.00,,,0.00,0.000000,,2013-05-14 03:01:00,
2013-05-13 23:11:00,45.0,31.0,-100.00,NW,314,3.0,8.0,58,0.00,,,0.00,0.000000,,2013-05-14 03:11:00,
2013-05-13 23:21:00,45.0,31.0,-100.00,NW,314,3.0,8.0,58,0.00,,,0.00,0.000000,,2013-05-14 03:21:00,
2013-05-13 23:53:00,44.0,30.0,-100.00,NW,305,3.0,8.0,57,0.00,,,0.00,0.000000,,2013-05-14 03:53:00,